Location: Dodgeville
(42.9600°N, 90.1300°W)
Time: 05:59:22
(UTC-05:00)

Amateur Radio Satellites - All Passes

Search period start: 30 August 2016 05:29
Search period end: 31 August 2016 05:29
Location: Dodgeville, 42.9600°N, 90.1300°W

Satellite Date Start Highest point End Downlink Frequencies (MHz)
Time Altitude Azimuth
STARS 30 Aug 05:38:39 05:42:01 21° 266° (W) 05:45:26 437.465
Cosmos 2491 30 Aug 05:39:11 05:48:05 87° 83° (E) 05:56:57 435.465 / 435.565
AO-7 30 Aug 05:41:27 05:49:36 62° 295° (WNW) 05:57:42 29.400- 29.500
ITAMSAT 1 30 Aug 05:41:37 05:44:48 17° 300° (WNW) 05:47:59 435.822/435.867
RS-15 30 Aug 06:04:01 06:13:39 26° 358° (N) 06:23:26 29.354- 29.394
BRITE-PL 30 Aug 06:09:48 06:15:07 39° 95° (E) 06:20:15 437.365/2234.400
STRAND 1 30 Aug 06:13:17 06:16:53 20° 62° (ENE) 06:20:29 437.568
HORYU 2 30 Aug 06:21:04 06:25:30 82° 284° (WNW) 06:29:54 437.375
NOAA 18 30 Aug 06:24:26 06:28:13 19° 92° (E) 06:31:58 137.9125
SO-50 30 Aug 06:39:03 06:42:17 18° 38° (NE) 06:45:28 436.795
Cubesat XI-IV 30 Aug 06:49:33 06:54:26 36° 97° (E) 06:59:17 437.490
LilacSat-2 30 Aug 06:52:22 06:55:52 35° 97° (E) 06:59:21 437.200
YUBILEINY 30 Aug 06:52:25 07:01:17 83° 278° (W) 07:10:10 435.215
NOAA 15 30 Aug 06:52:36 06:57:46 49° 100° (E) 07:02:53 137.62
CUTE-I 30 Aug 07:00:22 07:05:28 45° 99° (E) 07:10:33 437.470
DOVE 4 30 Aug 07:03:29 07:07:29 24° 92° (E) 07:11:18 437.250
AO-85 30 Aug 07:09:06 07:12:33 18° 321° (NW) 07:15:53 145.980
GOMX 1 30 Aug 07:09:59 07:15:20 62° 100° (E) 07:20:23 467.674
Cosmos 2504 30 Aug 07:17:37 07:25:46 58° 92° (E) 07:33:21 435.465 / 435.565
ISS 30 Aug 07:18:17 07:20:26 16° 133° (SE) 07:22:35 145.825
AO-7 30 Aug 07:36:22 07:40:44 16° 316° (NW) 07:45:07 29.400- 29.500
Cosmos 2491 30 Aug 07:37:54 07:43:42 20° 283° (WNW) 07:49:30 435.465 / 435.565
BRITE-PL 30 Aug 07:48:24 07:53:25 33° 293° (WNW) 07:58:19 437.365/2234.400
STRAND 1 30 Aug 07:50:38 07:55:38 56° 259° (W) 08:00:40 437.568
NOAA 18 30 Aug 08:03:53 08:09:17 60° 289° (WNW) 08:14:38 137.9125
SO-50 30 Aug 08:18:42 08:23:19 74° 238° (WSW) 08:27:46 436.795
RS-15 30 Aug 08:19:39 08:30:58 39° 32° (NNE) 08:42:12 29.354- 29.394
CUSAT 1 30 Aug 08:21:23 08:23:49 12° 61° (ENE) 08:26:22 437.405
LilacSat-2 30 Aug 08:27:28 08:29:54 17° 294° (WNW) 08:32:20 437.200
Cubesat XI-IV 30 Aug 08:29:46 08:34:24 31° 294° (WNW) 08:39:01 437.490
SEEDS 30 Aug 08:30:01 08:33:30 24° 95° (E) 08:36:59 437.485
NOAA 15 30 Aug 08:33:02 08:37:13 24° 297° (WNW) 08:41:22 137.62
HO-68 30 Aug 08:38:01 08:44:56 48° 100° (E) 08:51:46 435.675
PRISM 30 Aug 08:39:32 08:43:32 56° 73° (ENE) 08:47:36 437.425
DOVE 4 30 Aug 08:40:40 08:45:20 40° 291° (WNW) 08:49:44 437.250
CUTE-I 30 Aug 08:40:59 08:45:15 25° 296° (WNW) 08:49:31 437.470
GOMX 1 30 Aug 08:49:07 08:52:50 19° 299° (WNW) 08:56:27 467.674
UWE-3 30 Aug 08:52:10 08:54:24 14° 90° (E) 08:56:37 435.000/436.395/437.385
AAUSAT CUBESAT 2 30 Aug 08:52:58 08:56:22 24° 94° (E) 08:59:45 437.432
ISS 30 Aug 08:53:18 08:56:34 65° 329° (NNW) 08:59:51 145.825
YUBILEINY 30 Aug 08:53:48 08:59:34 19° 301° (WNW) 09:05:22 435.215
CANX-2 30 Aug 08:56:52 09:01:08 82° 104° (ESE) 09:05:23 2200.000
CUBEBUG 2 30 Aug 08:59:36 09:03:08 26° 95° (E) 09:06:36 437.445
CINEMA 3 30 Aug 09:00:29 09:05:00 82° 282° (WNW) 09:09:17 145.822/145.860
BEESAT 2 30 Aug 09:00:52 09:03:42 19° 112° (ESE) 09:06:32 435.950
ZACube-1 30 Aug 09:01:15 09:02:19 11° 89° (E) 09:03:24 437.345
CUTE 1.7 + AOD 2 30 Aug 09:02:24 09:06:39 81° 102° (ESE) 09:10:55 437.475
COMPASS 1 30 Aug 09:03:31 09:07:28 39° 98° (E) 09:11:24 437.405
BEESAT 3 30 Aug 09:12:00 09:15:46 48° 119° (ESE) 09:19:35 437.485
Cosmos 2504 30 Aug 09:12:22 09:19:29 31° 290° (WNW) 09:26:13 435.465 / 435.565
AIST 1 30 Aug 09:20:43 09:25:04 76° 96° (E) 09:29:28
ANTELSAT 30 Aug 09:22:20 09:25:32 19° 65° (ENE) 09:28:43 437.575/2403.000
DANDE 30 Aug 09:43:21 09:47:21 19° 70° (ENE) 09:52:01 436.750
TIGRISAT 30 Aug 09:51:20 09:55:27 35° 70° (ENE) 09:59:32 435.000
CUSAT 1 30 Aug 10:00:12 10:06:47 61° 77° (ENE) 10:14:31 437.405
Oscar 11 30 Aug 10:00:14 10:04:27 52° 99° (E) 10:08:40 145.826/435.025
SEEDS 30 Aug 10:05:32 10:09:11 29° 291° (WNW) 10:12:51 437.485
DELFI C3 30 Aug 10:07:17 10:10:39 25° 95° (E) 10:13:59 145.870
FUNcube-1 30 Aug 10:11:43 10:15:51 65° 101° (E) 10:19:57 145.935
PRISM 30 Aug 10:17:26 10:19:12 12° 270° (W) 10:20:59 437.425
UNISAT 6 30 Aug 10:20:26 10:25:01 74° 75° (ENE) 10:29:31 437.425
QB50P1 30 Aug 10:21:03 10:22:29 11° 61° (ENE) 10:23:55 145.935-145.965
HO-68 30 Aug 10:26:05 10:32:27 36° 298° (WNW) 10:38:46 435.675
UWE-3 30 Aug 10:27:09 10:31:11 48° 287° (WNW) 10:35:10 435.000/436.395/437.385
AAUSAT CUBESAT 2 30 Aug 10:28:13 10:31:50 29° 291° (WNW) 10:35:28 437.432
POPSAT HIP 1 30 Aug 10:30:24 10:32:41 14° 63° (ENE) 10:34:59 437.405
ISS 30 Aug 10:30:56 10:33:30 21° 348° (NNW) 10:36:04 145.825
RS-15 30 Aug 10:32:36 10:45:02 85° 239° (WSW) 10:57:13 29.354- 29.394
ZACube-1 30 Aug 10:34:56 10:39:03 63° 286° (WNW) 10:43:08 437.345
CANX-2 30 Aug 10:35:39 10:36:20 10° 299° (WNW) 10:37:02 2200.000
CUBEBUG 2 30 Aug 10:36:10 10:39:43 27° 292° (WNW) 10:43:13 437.445
BEESAT 2 30 Aug 10:37:29 10:41:14 41° 309° (NW) 10:45:02 435.950
COMPASS 1 30 Aug 10:39:48 10:42:44 19° 294° (WNW) 10:45:41 437.405
CUTE 1.7 + AOD 2 30 Aug 10:41:08 10:41:51 10° 299° (WNW) 10:42:34 437.475
BEESAT 3 30 Aug 10:50:49 10:53:42 19° 317° (NW) 10:56:35 437.485
DUCHIFAT 1 30 Aug 10:53:24 10:56:40 22° 66° (ENE) 10:59:56 145.980
HUMSAT D 30 Aug 10:55:27 10:59:21 42° 98° (E) 11:03:15 437.325/437.525
ANTELSAT 30 Aug 10:57:32 11:01:57 46° 261° (W) 11:06:17 437.575/2403.000
QB50P2 30 Aug 10:59:52 11:03:37 30° 69° (ENE) 11:07:21 145.880/145.840
AIST 1 30 Aug 11:02:20 11:03:15 11° 294° (WNW) 11:04:10
POLYITAN 1 30 Aug 11:02:21 11:06:06 30° 69° (ENE) 11:09:52 437.675
PCSat 30 Aug 11:02:27 11:07:17 35° 111° (ESE) 11:12:10 145.827
NANOSAT C BR1 30 Aug 11:08:04 11:11:52 33° 70° (ENE) 11:15:41 145.865
GONETS M04 30 Aug 11:09:38 11:17:11 34° 84° (E) 11:24:47
DANDE 30 Aug 11:24:38 11:30:19 75° 262° (W) 11:37:40 436.750
TIGRISAT 30 Aug 11:28:29 11:32:12 24° 265° (W) 11:35:52 435.000
BUGSAT 1 30 Aug 11:35:50 11:39:24 27° 68° (ENE) 11:43:00 437.445
AIST 2 30 Aug 11:36:18 11:40:02 35° 116° (ESE) 11:43:49 435.215
Oscar 11 30 Aug 11:37:35 11:40:11 16° 296° (WNW) 11:42:45 145.826/435.025
DELFI C3 30 Aug 11:42:04 11:45:26 26° 291° (WNW) 11:48:47 145.870
CUSAT 1 30 Aug 11:42:55 11:48:31 28° 271° (W) 11:54:49 437.405
FUNcube-1 30 Aug 11:49:59 11:51:34 12° 298° (WNW) 11:53:07 145.935
QB50P1 30 Aug 11:53:23 11:57:39 75° 258° (WSW) 12:01:56 145.935-145.965
UNISAT 6 30 Aug 12:00:50 12:02:11 11° 271° (W) 12:03:32 437.425
POPSAT HIP 1 30 Aug 12:03:47 12:08:00 58° 259° (W) 12:12:14 437.405
JAS-2 30 Aug 12:06:18 12:11:29 66° 72° (ENE) 12:17:07 435.910
Cosmos 2499 30 Aug 12:06:21 12:14:13 59° 92° (E) 12:21:32 435.465 / 435.565
ISS 30 Aug 12:08:19 12:10:48 19° 9° (N) 12:13:17 145.825
AUBIESAT-1 30 Aug 12:09:45 12:13:29 38° 102° (ESE) 12:16:57 437.475
UKube-1 30 Aug 12:13:48 12:15:57 13° 91° (E) 12:18:04 .
M-CUBED/EXP-1 PRIME 30 Aug 12:17:57 12:22:00 62° 106° (ESE) 12:25:42 437.505
AO-85 30 Aug 12:18:22 12:20:57 15° 36° (NE) 12:23:24 145.980
AISAT 30 Aug 12:19:50 12:23:51 32° 97° (E) 12:27:50 437.250
Oscar 19 30 Aug 12:21:16 12:24:55 20° 62° (ENE) 12:28:36 437.125/150
ESTCUBE 1 30 Aug 12:23:46 12:28:17 65° 102° (ESE) 12:32:47 437.505/2401.250
DUCHIFAT 1 30 Aug 12:28:16 12:32:10 35° 263° (W) 12:36:04 145.980
HUMSAT D 30 Aug 12:32:00 12:34:39 17° 295° (WNW) 12:37:18 437.325/437.525
QB50P2 30 Aug 12:35:53 12:39:24 25° 265° (W) 12:42:56 145.880/145.840
POLYITAN 1 30 Aug 12:38:24 12:41:54 24° 265° (W) 12:45:25 437.675
NANOSAT C BR1 30 Aug 12:44:17 12:47:38 22° 266° (W) 12:51:01 145.865
PCSat 30 Aug 12:45:37 12:50:38 37° 309° (NW) 12:55:41 145.827
RS-15 30 Aug 12:47:01 12:55:41 23° 261° (W) 13:04:16 29.354- 29.394
CUBEBUG 1 30 Aug 13:00:37 13:05:04 78° 285° (WNW) 13:09:27 437.445
AO-7 30 Aug 13:03:25 13:06:03 12° 40° (NE) 13:08:41 29.400- 29.500
SPROUT 30 Aug 13:03:58 13:08:07 47° 99° (E) 13:12:14 437.525
GONETS M04 30 Aug 13:05:03 13:13:35 55° 284° (WNW) 13:22:14
VELOX 1 30 Aug 13:06:33 13:11:02 85° 285° (WNW) 13:15:29 145.980
DANDE 30 Aug 13:10:33 13:12:38 12° 274° (W) 13:14:51 436.750
BUGSAT 1 30 Aug 13:11:03 13:14:42 28° 264° (W) 13:18:22 437.445
DX 1 30 Aug 13:13:25 13:17:50 77° 104° (ESE) 13:22:12 434.975-435.025
TISAT 1 30 Aug 13:13:41 13:15:30 13° 90° (E) 13:17:19 437.305
50 SAT 30 Aug 13:14:24 13:18:00 55° 285° (WNW) 13:21:34 437.505
AIST 2 30 Aug 13:15:06 13:18:35 26° 314° (NW) 13:22:07 435.215
ITAMSAT 1 30 Aug 13:42:44 13:45:54 17° 60° (ENE) 13:49:04 435.822/435.867
ISS 30 Aug 13:44:35 13:47:49 51° 28° (NNE) 13:51:02 145.825
AUBIESAT-1 30 Aug 13:44:55 13:47:38 18° 302° (WNW) 13:50:13 437.475
UKube-1 30 Aug 13:48:05 13:52:21 57° 287° (WNW) 13:56:35 .
O/OREOS (USA 219) 30 Aug 13:48:39 13:53:08 80° 112° (ESE) 13:57:41 437.305
M-CUBED/EXP-1 PRIME 30 Aug 13:54:04 13:55:56 13° 305° (NW) 13:57:43 437.505
JAS-2 30 Aug 13:54:17 13:57:18 15° 272° (W) 14:00:27 435.910
Gurwin Techsat 1B 30 Aug 13:54:22 13:59:36 63° 72° (ENE) 14:04:52 435.225
AISAT 30 Aug 13:56:30 14:00:11 26° 293° (WNW) 14:03:50 437.250
AO-85 30 Aug 13:57:46 14:02:03 82° 238° (WSW) 14:06:01 145.980
Oscar 19 30 Aug 13:58:44 14:03:48 57° 259° (W) 14:08:56 437.125/150
Cosmos 2499 30 Aug 14:01:03 14:07:43 29° 291° (WNW) 14:14:01 435.465 / 435.565
ESTCUBE 1 30 Aug 14:02:07 14:04:34 15° 298° (WNW) 14:07:00 437.505/2401.250
SWISSCUBE 30 Aug 14:13:30 14:15:44 13° 90° (E) 14:17:56 437.505
BEESAT 30 Aug 14:29:30 14:32:39 17° 92° (E) 14:35:48 436.000
SPROUT 30 Aug 14:40:57 14:43:41 17° 296° (WNW) 14:46:25 437.525
TISAT 1 30 Aug 14:47:23 14:51:31 57° 287° (WNW) 14:55:37 437.305
AO-7 30 Aug 14:48:55 14:56:46 47° 62° (ENE) 15:04:37 29.400- 29.500
DX 1 30 Aug 14:51:48 14:53:23 12° 300° (WNW) 14:54:58 434.975-435.025
YUBILEINY 30 Aug 15:09:51 15:10:58 10° 51° (NE) 15:12:05 435.215
GONETS M04 30 Aug 15:10:35 15:12:51 11° 309° (NW) 15:15:06
ITUPSAT 1 30 Aug 15:17:57 15:22:37 51° 100° (E) 15:27:16 437.325
ITAMSAT 1 30 Aug 15:19:38 15:24:48 71° 257° (WSW) 15:29:59 435.822/435.867
ISS 30 Aug 15:21:30 15:24:04 21° 225° (SW) 15:26:38 145.825
O/OREOS (USA 219) 30 Aug 15:30:59 15:33:10 13° 311° (NW) 15:35:21 437.305
Gurwin Techsat 1B 30 Aug 15:36:33 15:39:59 17° 269° (W) 15:43:26 435.225
HORYU 2 30 Aug 15:46:33 15:48:06 12° 60° (ENE) 15:49:41 437.375
SWISSCUBE 30 Aug 15:49:15 15:54:00 69° 286° (WNW) 15:58:44 437.505
MOZHAYETS 4 30 Aug 15:51:58 15:55:11 19° 92° (E) 15:58:25
BEESAT 30 Aug 16:06:06 16:10:44 52° 289° (WNW) 16:15:21 436.000
NOAA 15 30 Aug 16:37:39 16:39:48 13° 56° (ENE) 16:41:58 137.62
AO-7 30 Aug 16:41:47 16:49:35 42° 261° (W) 16:57:25 29.400- 29.500
GOMX 1 30 Aug 16:44:58 16:46:07 11° 56° (NE) 16:47:16 467.674
CUTE-I 30 Aug 16:47:10 16:49:09 12° 56° (NE) 16:51:07 437.470
Cosmos 2491 30 Aug 16:48:06 16:53:58 20° 78° (ENE) 16:59:51 435.465 / 435.565
ITUPSAT 1 30 Aug 16:56:44 17:00:04 19° 297° (WNW) 17:03:24 437.325
KKS-1 30 Aug 16:58:47 17:03:14 68° 102° (ESE) 17:07:39 437.445
YUBILEINY 30 Aug 17:01:45 17:10:17 52° 75° (ENE) 17:18:43 435.215
Cosmos 2504 30 Aug 17:10:16 17:15:09 19° 63° (ENE) 17:19:59 435.465 / 435.565
BEESAT 2 30 Aug 17:17:17 17:20:14 19° 43° (NE) 17:23:08 435.950
HORYU 2 30 Aug 17:19:34 17:24:02 80° 258° (WSW) 17:28:30 437.375
CUBESAT XI-V 30 Aug 17:20:29 17:24:03 21° 93° (E) 17:27:36 437.345
BRITE-PL 30 Aug 17:21:05 17:25:48 43° 69° (ENE) 17:30:52 437.365/2234.400
STARS 30 Aug 17:25:46 17:30:09 64° 102° (ESE) 17:34:28 437.465
MOZHAYETS 4 30 Aug 17:28:12 17:32:34 45° 289° (WNW) 17:36:56
BEESAT 3 30 Aug 17:28:17 17:32:02 39° 50° (NE) 17:35:46 437.485
LilacSat-2 30 Aug 17:35:35 17:38:32 21° 68° (ENE) 17:41:28 437.200
NOAA 18 30 Aug 17:51:02 17:56:09 40° 67° (ENE) 18:01:16 137.9125
DOVE 4 30 Aug 18:08:53 18:13:20 29° 66° (ENE) 18:17:51 437.250
Cubesat XI-IV 30 Aug 18:12:16 18:17:33 64° 72° (ENE) 18:22:51 437.490
NOAA 15 30 Aug 18:13:29 18:18:45 84° 75° (ENE) 18:24:04 137.62
GOMX 1 30 Aug 18:17:58 18:23:07 70° 74° (ENE) 18:28:32 467.674
CUTE-I 30 Aug 18:23:00 18:28:20 81° 74° (ENE) 18:33:41 437.470
CINEMA 3 30 Aug 18:28:04 18:30:22 13° 61° (ENE) 18:32:39 145.822/145.860
KKS-1 30 Aug 18:37:03 18:39:15 14° 299° (WNW) 18:41:25 437.445
Cosmos 2491 30 Aug 18:40:54 18:49:37 84° 277° (W) 18:58:28 435.465 / 435.565
BEESAT 2 30 Aug 18:54:25 18:58:19 51° 241° (WSW) 19:02:12 435.950
CUBESAT XI-V 30 Aug 18:57:09 19:01:35 42° 289° (WNW) 19:06:01 437.345
YUBILEINY 30 Aug 18:59:05 19:06:44 36° 276° (W) 19:14:20 435.215
BRITE-PL 30 Aug 19:00:28 19:04:29 24° 269° (W) 19:08:46 437.365/2234.400
Cosmos 2504 30 Aug 19:02:14 19:09:27 79° 264° (W) 19:16:38 435.465 / 435.565
STARS 30 Aug 19:03:45 19:05:58 14° 299° (WNW) 19:08:10 437.465
BEESAT 3 30 Aug 19:06:31 19:09:27 20° 248° (WSW) 19:12:22 437.485
HO-68 30 Aug 19:07:33 19:14:07 40° 63° (ENE) 19:20:42 435.675
LilacSat-2 30 Aug 19:09:21 19:12:41 28° 264° (W) 19:16:01 437.200
SEEDS 30 Aug 19:23:02 19:26:02 20° 66° (ENE) 19:29:04 437.485
AIST 1 30 Aug 19:27:29 19:30:50 21° 71° (ENE) 19:34:08
NOAA 18 30 Aug 19:32:07 19:36:53 29° 264° (W) 19:41:40 137.9125
AAUSAT CUBESAT 2 30 Aug 19:44:34 19:47:24 18° 66° (ENE) 19:50:17 437.432
DOVE 4 30 Aug 19:45:57 19:50:49 39° 264° (W) 19:55:48 437.250
PCSat 30 Aug 19:48:57 19:53:58 36° 50° (NE) 19:58:56 145.827
UWE-3 30 Aug 19:50:04 19:52:42 15° 64° (ENE) 19:55:18 435.000/436.395/437.385
CANX-2 30 Aug 19:50:11 19:54:19 63° 75° (ENE) 19:58:29 2200.000
Cubesat XI-IV 30 Aug 19:54:41 19:58:04 17° 269° (W) 20:01:28 437.490
COMPASS 1 30 Aug 19:55:11 19:58:46 29° 69° (ENE) 20:02:22 437.405
CUTE 1.7 + AOD 2 30 Aug 19:55:36 19:59:44 62° 74° (ENE) 20:03:54 437.475
AIST 2 30 Aug 19:56:32 20:00:21 33° 48° (NE) 20:04:08 435.215
NOAA 15 30 Aug 19:57:07 19:59:11 12° 272° (W) 20:01:15 137.62
ZACube-1 30 Aug 19:58:07 19:59:40 12° 62° (ENE) 20:01:13 437.345
CUBEBUG 2 30 Aug 19:58:10 20:02:04 27° 68° (ENE) 20:05:52 437.445
GOMX 1 30 Aug 19:58:37 20:01:44 16° 272° (W) 20:04:57 467.674
STRAND 1 30 Aug 20:00:06 20:05:00 46° 99° (E) 20:09:54 437.568
CINEMA 3 30 Aug 20:01:48 20:06:49 84° 255° (WSW) 20:11:47 145.822/145.860
CUTE-I 30 Aug 20:06:34 20:09:00 13° 271° (W) 20:11:27 437.470
Cosmos 2491 30 Aug 20:42:11 20:47:56 19° 300° (WNW) 20:53:44 435.465 / 435.565
DELFI C3 30 Aug 20:54:40 20:57:17 17° 65° (ENE) 20:59:54 145.870
HO-68 30 Aug 20:55:00 21:01:45 43° 261° (W) 21:08:33 435.675
Oscar 11 30 Aug 20:55:38 20:59:43 44° 72° (ENE) 21:03:49 145.826/435.025
SEEDS 30 Aug 20:57:39 21:01:30 37° 263° (W) 21:05:23 437.485
Cosmos 2504 30 Aug 20:58:54 21:01:29 12° 284° (WNW) 21:04:04 435.465 / 435.565
AIST 1 30 Aug 21:04:31 21:08:32 35° 269° (W) 21:12:30
FUNcube-1 30 Aug 21:07:35 21:11:54 56° 73° (ENE) 21:16:08 145.935
GONETS M04 30 Aug 21:18:44 21:24:23 18° 59° (ENE) 21:29:58
AAUSAT CUBESAT 2 30 Aug 21:18:47 21:22:37 39° 262° (W) 21:26:29 437.432
UWE-3 30 Aug 21:24:15 21:28:44 58° 260° (W) 21:33:07 435.000/436.395/437.385
CANX-2 30 Aug 21:29:11 21:30:35 11° 271° (W) 21:31:59 2200.000
ZACube-1 30 Aug 21:30:57 21:35:23 76° 259° (WSW) 21:39:44 437.345
COMPASS 1 30 Aug 21:31:01 21:34:19 23° 266° (W) 21:37:39 437.405
PCSat 30 Aug 21:32:25 21:37:20 36° 249° (WSW) 21:42:13 145.827
M-CUBED/EXP-1 PRIME 30 Aug 21:32:31 21:34:40 13° 55° (NE) 21:36:49 437.505
CUBEBUG 2 30 Aug 21:34:25 21:38:34 32° 264° (W) 21:42:39 437.445
CUTE 1.7 + AOD 2 30 Aug 21:34:34 21:35:59 11° 271° (W) 21:37:25 437.475
AIST 2 30 Aug 21:35:10 21:38:44 27° 246° (WSW) 21:42:15 435.215
STRAND 1 30 Aug 21:39:55 21:43:54 24° 296° (WNW) 21:47:54 437.568
HUMSAT D 30 Aug 21:47:30 21:51:13 33° 70° (ENE) 21:54:55 437.325/437.525
PRISM 30 Aug 21:55:07 21:59:19 82° 105° (ESE) 22:03:30 437.425
Cosmos 2499 30 Aug 21:57:15 22:02:03 19° 64° (ENE) 22:06:52 435.465 / 435.565
UNISAT 6 30 Aug 22:13:00 22:15:05 13° 90° (E) 22:17:10 437.425
O/OREOS (USA 219) 30 Aug 22:19:09 22:22:40 21° 55° (NE) 22:26:10 437.305
CUBEBUG 1 30 Aug 22:24:44 22:25:47 11° 59° (ENE) 22:26:50 437.445
DELFI C3 30 Aug 22:28:10 22:31:50 38° 262° (W) 22:35:33 145.870
VELOX 1 30 Aug 22:31:55 22:32:58 11° 59° (ENE) 22:34:03 145.980
Oscar 11 30 Aug 22:33:16 22:36:03 17° 268° (W) 22:38:53 145.826/435.025
SO-50 30 Aug 22:33:41 22:37:54 30° 114° (ESE) 22:42:05 436.795
FUNcube-1 30 Aug 22:46:13 22:48:28 14° 269° (W) 22:50:42 145.935
ANTELSAT 30 Aug 22:48:25 22:52:16 32° 97° (E) 22:56:04 437.575/2403.000
RS-15 30 Aug 22:54:14 22:57:37 12° 91° (E) 23:01:01 29.354- 29.394
AUBIESAT-1 30 Aug 22:55:08 22:59:43 63° 68° (ENE) 23:04:16 437.475
M-CUBED/EXP-1 PRIME 30 Aug 23:03:48 23:08:30 89° 245° (WSW) 23:13:13 437.505
CUSAT 1 30 Aug 23:06:19 23:09:14 37° 92° (E) 23:12:54 437.405
UKube-1 30 Aug 23:09:31 23:11:47 14° 61° (ENE) 23:14:03 .
GONETS M04 30 Aug 23:13:51 23:22:46 80° 81° (E) 23:31:37
AISAT 30 Aug 23:17:54 23:21:51 32° 69° (ENE) 23:25:51 437.250
TIGRISAT 30 Aug 23:18:03 23:22:19 65° 101° (ESE) 23:26:31 435.000
HUMSAT D 30 Aug 23:23:46 23:26:54 21° 266° (W) 23:30:02 437.325/437.525
ESTCUBE 1 30 Aug 23:23:51 23:28:18 65° 74° (ENE) 23:32:46 437.505/2401.250
PRISM 30 Aug 23:33:22 23:33:58 10° 300° (WNW) 23:34:33 437.425
QB50P1 30 Aug 23:38:23 23:41:02 16° 92° (E) 23:43:41 145.935-145.965
UNISAT 6 30 Aug 23:47:59 23:52:10 54° 287° (WNW) 23:56:19 437.425
POPSAT HIP 1 30 Aug 23:48:21 23:51:31 20° 94° (E) 23:54:40 437.405
Cosmos 2499 30 Aug 23:48:56 23:56:00 78° 265° (W) 00:03:11 435.465 / 435.565
50 SAT 30 Aug 23:52:00 23:55:34 68° 75° (ENE) 23:59:09 437.505
CUBEBUG 1 30 Aug 23:56:57 00:01:22 86° 257° (WSW) 00:05:50 437.445
O/OREOS (USA 219) 30 Aug 23:57:55 00:02:19 45° 253° (WSW) 00:06:41 437.305
SPROUT 30 Aug 23:58:07 00:02:09 40° 71° (ENE) 00:06:12 437.525
VELOX 1 31 Aug 00:04:17 00:08:44 87° 256° (WSW) 00:13:14 145.980
TISAT 1 31 Aug 00:06:51 00:08:28 12° 61° (ENE) 00:10:07 437.305
DX 1 31 Aug 00:09:24 00:13:45 74° 74° (ENE) 00:18:09 434.975-435.025
DUCHIFAT 1 31 Aug 00:11:16 00:15:04 32° 97° (E) 00:18:48 145.980
SO-50 31 Aug 00:13:43 00:18:16 39° 312° (NW) 00:22:47 436.795
QB50P2 31 Aug 00:19:00 00:23:06 48° 99° (E) 00:27:10 145.880/145.840
POLYITAN 1 31 Aug 00:21:30 00:25:36 48° 99° (E) 00:29:39 437.675
ANTELSAT 31 Aug 00:25:27 00:28:50 23° 293° (WNW) 00:32:11 437.575/2403.000
NANOSAT C BR1 31 Aug 00:26:40 00:30:47 52° 100° (E) 00:34:52 145.865
AUBIESAT-1 31 Aug 00:31:48 00:34:29 15° 264° (W) 00:37:08 437.475
DANDE 31 Aug 00:37:33 00:40:05 43° 284° (WNW) 00:43:00 436.750
UKube-1 31 Aug 00:43:03 00:47:19 61° 258° (WSW) 00:51:38 .
M-CUBED/EXP-1 PRIME 31 Aug 00:43:07 00:43:33 10° 267° (W) 00:43:59 437.505
CUSAT 1 31 Aug 00:50:27 00:51:49 12° 300° (WNW) 00:53:17 437.405
BUGSAT 1 31 Aug 00:51:28 00:55:20 37° 98° (E) 00:59:07 437.445
AISAT 31 Aug 00:54:41 00:58:20 25° 265° (W) 01:02:04 437.250
RS-15 31 Aug 00:55:58 01:07:08 60° 113° (ESE) 01:18:54 29.354- 29.394
TIGRISAT 31 Aug 00:56:36 00:58:28 13° 298° (WNW) 01:00:18 435.000
JAS-2 31 Aug 00:57:16 01:04:11 61° 101° (E) 01:11:45 435.910
ESTCUBE 1 31 Aug 01:03:36 01:05:33 13° 271° (W) 01:07:29 437.505/2401.250
PHONESAT 2.4 31 Aug 01:06:40 01:09:17 27° 161° (SSE) 01:11:54 2401.200-2431.200
GONETS M04 31 Aug 01:12:14 01:18:31 22° 281° (WNW) 01:24:48
QB50P1 31 Aug 01:13:02 01:17:03 44° 288° (WNW) 01:21:02 145.935-145.965
SWISSCUBE 31 Aug 01:20:34 01:23:46 18° 62° (ENE) 01:26:58 437.505
POPSAT HIP 1 31 Aug 01:23:34 01:27:24 35° 290° (WNW) 01:31:12 437.405
SPROUT 31 Aug 01:35:12 01:38:15 19° 267° (W) 01:41:19 437.525
BEESAT 31 Aug 01:36:39 01:40:22 23° 65° (ENE) 01:44:05 436.000
TISAT 1 31 Aug 01:39:19 01:43:33 71° 258° (WSW) 01:47:48 437.305
Cosmos 2499 31 Aug 01:45:33 01:47:49 12° 284° (WNW) 01:50:06 435.465 / 435.565
DUCHIFAT 1 31 Aug 01:47:18 01:50:35 22° 293° (WNW) 01:53:50 145.980
DX 1 31 Aug 01:49:33 01:50:26 11° 271° (W) 01:51:21 434.975-435.025
QB50P2 31 Aug 01:55:54 01:58:31 16° 296° (WNW) 02:01:08 145.880/145.840
POLYITAN 1 31 Aug 01:58:26 02:01:00 16° 297° (WNW) 02:03:34 437.675
NANOSAT C BR1 31 Aug 02:03:41 02:06:05 15° 297° (WNW) 02:08:30 145.865
Oscar 19 31 Aug 02:09:17 02:14:19 47° 99° (E) 02:19:18 437.125/150
Gurwin Techsat 1B 31 Aug 02:10:19 02:14:29 23° 93° (E) 02:18:38 435.225
ITUPSAT 1 31 Aug 02:25:21 02:30:04 66° 73° (ENE) 02:34:48 437.325
BUGSAT 1 31 Aug 02:27:32 02:30:26 19° 295° (WNW) 02:33:19 437.445
PHONESAT 2.4 31 Aug 02:42:25 02:45:21 52° 177° (S) 02:48:17 2401.200-2431.200
JAS-2 31 Aug 02:43:03 02:48:50 30° 297° (WNW) 02:55:05 435.910
AO-7 31 Aug 02:53:19 02:55:25 11° 85° (E) 02:57:31 29.400- 29.500
MOZHAYETS 4 31 Aug 02:54:52 02:58:13 21° 65° (ENE) 03:01:34
SWISSCUBE 31 Aug 02:56:30 03:01:08 54° 259° (W) 03:05:48 437.505
Cosmos 2491 31 Aug 02:58:23 02:59:26 10° 50° (NE) 03:00:30 435.465 / 435.565
RS-15 31 Aug 03:08:45 03:20:01 50° 319° (NW) 03:31:51 29.354- 29.394
BEESAT 31 Aug 03:13:26 03:17:54 40° 262° (W) 03:22:24 436.000
ITAMSAT 1 31 Aug 03:31:40 03:36:29 38° 98° (E) 03:41:17 435.822/435.867
Oscar 19 31 Aug 03:49:15 03:53:20 24° 297° (WNW) 03:57:24 437.125/150
Gurwin Techsat 1B 31 Aug 03:49:34 03:54:39 47° 290° (WNW) 03:59:44 435.225
KKS-1 31 Aug 03:57:17 04:01:44 69° 74° (ENE) 04:06:14 437.445
ITUPSAT 1 31 Aug 04:05:59 04:08:21 14° 270° (W) 04:10:44 437.325
AO-85 31 Aug 04:12:10 04:16:45 30° 114° (ESE) 04:21:08 145.980
PHONESAT 2.4 31 Aug 04:18:41 04:21:29 35° 194° (SSW) 04:24:15 2401.200-2431.200
STARS 31 Aug 04:22:51 04:27:13 63° 74° (ENE) 04:31:38 437.465
CUBESAT XI-V 31 Aug 04:24:45 04:28:21 23° 66° (ENE) 04:31:59 437.345
MOZHAYETS 4 31 Aug 04:30:46 04:35:05 42° 262° (W) 04:39:26
AO-7 31 Aug 04:41:29 04:49:46 64° 105° (ESE) 04:57:57 29.400- 29.500
Cosmos 2491 31 Aug 04:50:13 04:58:49 52° 75° (ENE) 05:07:22 435.465 / 435.565
HORYU 2 31 Aug 05:10:33 05:13:33 18° 93° (E) 05:16:32 437.375
ITAMSAT 1 31 Aug 05:11:25 05:15:48 29° 295° (WNW) 05:20:11 435.822/435.867
